{"data":{"norad_id":56393,"epoch":"2026-05-25T05:15:29.992032Z","epoch_age_seconds":66599,"freshness":"FRESH","line1":"1 56393U 23061V   26145.21909713 -.00001788  00000+0 -55462-4 0  9999","line2":"2 56393  43.0089 125.7136 0002730 272.6944  87.3596 15.27572626168458","mean_motion":15.27572626,"eccentricity":0.000273,"inclination_deg":43.0089,"raan_deg":125.7136,"arg_perigee_deg":272.6944,"mean_anomaly_deg":87.3596,"bstar":-5.5462e-5,"rev_number":16845,"period_min":94.26720376436,"perigee_km":481.19806670506,"apogee_km":484.94428636945,"semimajor_km":6861.2081765373,"source":"CELESTRAK","updated_at":"2026-05-25T13:38:18.014093Z"}}